#timestamp,LO_Frequency,Hit,StdDev 
1570827615.8,286046996.6,N
1570827635.7,286046996.5,N
1570827655.5,286046998.4,N
1570827675.3,286046998.8,N
1570827695.2,286046998.9,N
1570827715.0,286046998.4,N
1570827715.9,286046998.4,N
1570827735.7,286046998.7,N
1570827755.6,286046996.7,N
1570827775.4,286046995.9,Y
1570827795.3,286046996.9,P
1570827815.1,286046995.0,P
1570827835.8,286046996.7,N
1570827855.7,286046996.5,Y
1570827875.5,286047001.6,P
1570827895.4,286047001.8,N
1570827915.2,286047002.8,N
1570827935.0,286047002.6,N
1570827935.9,286047002.6,N
1570827955.8,286047002.3,N
1570827975.6,286047001.5,N
1570827995.4,286047002.6,N
1570828015.3,286047000.0,N
1570828035.1,286046999.3,N
1570828055.9,286046998.8,N
1570828075.7,286047001.0,N
1570828095.5,286047000.6,N
1570828115.4,286047002.5,N
1570828135.2,286047002.8,N
1570828155.0,286047000.5,N
1570828155.9,286047000.5,N
1570828175.8,286047001.0,N
1570828195.6,286046999.0,N
1570828215.5,286046998.1,N
1570828235.3,286047002.8,N
1570828255.1,286047000.6,N
1570828275.9,286047000.6,N
1570828295.7,286046999.9,N
1570828315.5,286047002.8,N
1570828335.4,286046999.8,N
1570828355.2,286047002.2,N
1570828375.1,286047000.4,N
1570828376.0,286047000.4,N
1570828395.8,286047000.1,N
1570828415.6,286047002.3,N
1570828435.5,286046998.2,N
1570828455.3,286047002.3,N
1570828475.1,286047002.4,N
1570828495.9,286047001.5,N
1570828515.7,286047002.5,N
1570828535.6,286046999.7,N
1570828555.4,286047001.9,N
1570828575.2,286047000.1,N
1570828595.1,286047004.4,Y
1570828596.0,286047004.4,P
1570828615.8,286047001.7,N
1570828635.7,286047003.9,N
1570828655.5,286047003.2,N
1570828675.3,286047004.0,N
1570828695.2,286047003.6,N
1570828715.0,286047002.9,N
1570828715.9,286047002.9,N
1570828735.8,286047007.4,Y
1570828755.6,286047001.8,P
1570828775.4,286047003.8,P
1570828795.3,286047001.8,N
1570828815.1,286047001.8,N
1570828835.8,286047001.3,N
1570828855.7,286047005.3,Y
1570828875.5,286047004.0,P
1570828895.4,286047002.3,N
1570828915.2,286047004.0,P
1570828935.0,286047003.1,Y
1570828935.9,286047003.1,P
1570828955.8,286047002.4,P
1570828975.6,286047002.1,P
1570828995.5,286047001.3,N
1570829015.3,286047004.4,Y
1570829035.1,286047000.3,P
1570829055.9,286047000.2,N
1570829075.7,286047000.2,N
1570829095.6,286047004.2,Y
1570829115.4,286047003.6,P
1570829135.2,286047003.4,N
1570829155.1,286047003.3,N
1570829156.0,286047003.3,N
1570829175.8,286047004.8,Y
1570829195.7,286047002.0,P
1570829215.5,286046999.9,N
1570829235.3,286047000.1,N
1570829255.2,286047002.8,N
1570829275.0,286046999.8,N
1570829275.9,286046999.8,N
1570829295.7,286047003.9,N
1570829315.6,286047004.0,N
1570829335.4,286047005.8,Y
1570829355.3,286047006.0,P
1570829375.1,286047007.5,P
1570829395.8,286047006.5,N
1570829415.7,286047006.7,Y
1570829435.5,286047002.6,P
1570829455.4,286047002.7,N
1570829475.2,286047002.2,N
1570829495.0,286047002.0,N
1570829495.9,286047002.0,N
1570829515.8,286047004.4,Y
1570829535.6,286047001.1,P
1570829555.5,286047001.1,N
1570829575.3,286047000.8,N
1570829595.1,286046999.4,N
1570829615.9,286047001.0,N
1570829635.7,286047001.1,N
1570829655.5,286046998.5,N
1570829675.4,286046998.9,N
1570829695.2,286047000.7,N
1570829715.1,286047002.0,N
1570829716.0,286047002.0,N
1570829735.8,286046999.9,N
1570829755.6,286047002.6,N
1570829775.5,286046999.7,N
1570829795.3,286047001.6,N
1570829815.1,286047000.5,N
1570829835.9,286047002.1,N
1570829855.7,286047005.7,Y
1570829875.6,286047005.1,P
1570829895.4,286047007.6,P
1570829915.2,286047004.9,N
1570829935.1,286047007.3,Y
1570829936.0,286047007.3,P
1570829955.8,286047004.3,P
1570829975.7,286047003.7,N
1570829995.5,286047005.5,Y
1570830015.3,286047000.4,P
1570830035.2,286046998.8,N
1570830055.0,286046998.2,N
1570830055.9,286046998.2,N
1570830075.8,286046998.2,N
1570830095.6,286047000.9,N
1570830115.4,286047002.8,N
1570830135.3,286047000.5,N
1570830155.1,286047000.2,N
1570830175.8,286047002.8,N
1570830195.7,286047000.9,N
1570830215.5,286047004.4,N
1570830235.4,286047004.0,N
1570830255.2,286047004.4,N
1570830275.0,286047001.7,N
1570830275.9,286047001.7,N
1570830295.8,286047001.7,N
1570830315.6,286047005.9,N
1570830335.4,286047005.3,N
1570830355.3,286047007.5,Y
1570830375.1,286047003.5,P
1570830395.9,286046999.7,N
1570830415.7,286047002.1,N
1570830435.5,286047000.6,N
1570830455.4,286047002.4,N
1570830475.2,286047002.8,N
1570830495.1,286047002.6,N
1570830496.0,286047002.6,N
1570830515.8,286047003.9,Y
1570830535.6,286047003.8,P
1570830555.5,286047003.7,P
1570830575.3,286047003.0,P
1570830595.1,286047002.9,Y
1570830615.9,286047000.6,P
1570830635.7,286047000.1,N
1570830655.6,286047001.0,N
1570830675.4,286047000.2,N
1570830695.2,286047003.8,Y
1570830715.1,286047003.8,P
1570830716.0,286047003.8,N
1570830735.8,286047002.1,N
1570830755.7,286047001.5,N
1570830775.5,286047004.3,Y
1570830795.3,286046998.1,P
1570830815.2,286047000.5,N
1570830835.0,286047000.3,N
1570830835.9,286047000.3,N
1570830855.7,286047000.8,N
1570830875.6,286047000.7,N
1570830895.4,286047001.4,N
1570830915.3,286047004.3,Y
1570830935.1,286047001.6,P
1570830955.8,286047002.2,P
1570830975.7,286047001.5,N
1570830995.5,286047003.5,Y
1570831015.4,286047001.5,P
1570831035.2,286047002.7,P
1570831055.0,286047003.9,P
1570831055.9,286047003.9,Y
1570831075.8,286047000.8,P
1570831095.6,286046998.8,N
1570831115.5,286046998.3,N
1570831135.3,286047000.0,N
1570831155.1,286047000.5,N
1570831175.9,286047002.6,N
1570831195.7,286047001.4,N
